Lid_Strength_Index
4 4 4 5 4 5 5 5 5 5 4 4 4 5 5 5 4 7 10 7 5 3 1 5 5 6 7 8 6 6 13 14 13 13 12 10 11 8 7 7 7 8 7 5 3
5 5 5 5 5 5 5 5 5 5 5 5 5 5 5 4 8 9 6 2 1 -0 4 6 7 6 10 10 9 9 11 11 9 9 10 9 9 7 8 8 8 7 6 3 2
5 5 5 5 5 5 5 5 5 5 5 5 5 5 5 6 10 9 -1 -1 -1 -0 5 5 5 8 10 10 10 10 10 8 8 7 7 8 8 7 7 10 8 7 7 8 5
5 5 5 5 5 5 5 5 5 4 5 5 5 5 5 7 16 4 0 -1 -2 1 5 7 8 11 12 11 9 12 9 8 8 7 7 8 7 7 8 8 7 7 7 6 5
5 5 6 5 5 5 5 5 5 5 5 5 5 5 7 11 10 5 0 1 3 4 6 8 10 10 12 12 10 10 10 9 8 8 8 7 7 8 7 6 7 7 6 7 7
6 6 6 6 5 5 5 5 5 5 5 5 4 4 8 14 7 6 6 6 3 5 7 7 8 8 10 10 11 9 9 8 8 8 7 8 8 8 7 6 6 7 7 7 4
5 5 5 5 5 5 5 5 5 5 4 5 4 5 9 11 5 6 7 7 3 3 5 5 5 7 8 9 7 7 10 9 9 8 8 7 9 9 7 6 7 7 7 6 6
5 5 5 5 5 5 5 4 4 4 4 4 4 7 11 6 5 6 6 7 6 5 4 5 4 6 7 6 7 9 10 13 10 9 8 8 11 8 7 8 7 7 7 7 7
5 5 5 5 4 4 4 4 3 2 2 3 5 8 10 3 5 5 5 7 6 6 6 4 7 9 8 9 11 10 13 13 12 9 8 9 11 8 7 7 8 8 7 7 7
5 5 5 4 4 3 4 3 3 2 3 3 4 8 7 7 5 5 5 6 6 7 8 9 10 12 11 11 16 13 13 12 12 9 8 9 10 8 7 7 8 8 8 7 7
5 5 5 4 3 4 4 7 10 10 8 9 8 7 6 5 4 5 4 6 6 8 11 10 12 14 13 10 9 10 10 12 10 8 9 9 9 8 7 7 8 8 7 7 7
4 4 4 3 3 3 5 8 9 8 9 5 4 4 4 4 6 4 2 7 8 11 9 11 12 11 10 10 11 10 11 11 10 8 9 9 10 8 7 7 7 8 7 7 7
4 4 3 3 3 5 7 7 5 3 9 6 4 4 4 3 5 5 3 5 8 10 10 12 11 8 9 10 11 12 11 11 11 9 8 9 10 9 7 6 6 6 7 6 7
4 4 3 4 6 6 8 4 4 2 12 8 6 5 4 4 6 3 3 5 7 11 9 9 8 8 10 10 10 13 10 9 10 11 14 9 15 11 8 8 7 6 8 7 7
4 4 4 4 7 7 6 3 2 4 19 8 7 3 4 6 6 6 3 5 9 9 10 12 9 10 11 10 8 11 9 10 10 11 12 11 14 12 9 10 9 7 7 7 6
4 4 4 5 5 4 3 2 3 13 18 9 7 7 8 6 6 6 5 4 5 9 9 10 7 8 8 8 8 8 10 10 10 12 16 13 13 13 12 10 8 7 7 6 7
4 4 5 4 7 3 2 5 13 17 8 10 10 8 8 9 8 7 9 11 13 15 15 11 11 8 7 10 8 10 12 19 20 18 18 12 13 12 10 8 8 8 7 6 6
4 4 4 4 4 3 3 9 17 11 10 8 8 8 10 9 9 9 10 13 10 12 15 17 17 11 8 9 12 12 12 18 23 20 17 12 14 12 9 7 8 6 7 6 7
5 5 5 5 3 3 6 14 13 11 8 9 9 11 11 9 10 10 11 12 11 10 15 16 15 8 8 8 10 13 14 10 15 14 18 14 11 9 8 8 7 8 7 6 7
7 6 6 5 3 5 9 12 10 7 7 8 13 11 14 12 12 12 12 9 10 8 8 11 16 10 10 8 9 11 9 15 16 22 23 18 17 13 10 9 8 8 8 7 7
6 7 6 4 4 7 13 11 8 6 6 9 11 12 12 13 12 12 12 9 8 9 8 10 14 13 10 12 14 13 14 12 14 16 21 21 17 10 10 9 9 8 8 7 6
7 10 5 5 9 9 11 8 6 7 6 7 8 9 11 11 13 12 12 10 7 8 12 10 13 16 14 9 9 11 13 14 18 18 16 17 17 8 9 8 8 7 7 7 7
9 8 5 6 14 12 9 8 7 7 7 8 10 9 9 12 14 12 11 8 7 9 11 10 14 18 16 14 11 14 12 12 13 13 17 19 16 8 8 8 8 8 8 7 7
8 12 9 9 9 11 11 10 9 6 7 8 9 8 10 12 10 12 12 9 7 8 7 8 13 15 18 16 13 15 13 12 13 17 16 16 14 11 10 10 9 9 8 7 7
8 11 10 14 12 11 9 9 10 10 8 8 10 10 11 14 13 12 11 10 9 7 8 10 15 13 13 12 12 12 13 13 14 13 16 13 13 12 11 10 9 8 8 8 7
10 11 10 11 10 11 10 10 10 10 11 11 12 11 10 12 12 13 12 11 12 10 11 9 15 13 14 12 12 14 12 12 12 13 13 13 14 10 9 8 9 8 8 8 7
7 7 10 11 12 12 11 10 10 9 9 9 10 11 12 10 9 8 8 8 9 11 11 12 13 15 17 13 14 17 13 12 12 11 11 15 12 9 10 10 10 9 8 8 7